Eko 2 — SY9957 — position and weather

sailwx.info

Track history (hours):
 
Tides and Currents Weather Stations Pressure Air Temp Water Temp Dewpoint Dewpoint Depression Visibility Wind Speed Wind Dir Waves Ship Positions

Eko 2

Last reported at 2014-Oct-20 03:27 UTC. Time now 2014-Oct-20 04:28 UTC.
Position N 38°02' E 023°32'.

Length 89 m; draft 4.3 m.

Type: Ship (hazmat cat A). MMSI: 240827000.

Date/timePositionNaut miles runAvg speedWind from/ knotsBaromVisibWave heightAir tempDewpointWater temp
2014-Oct-20 03:27N 38°02' E 023°32'0 0.0
2014-Oct-20 02:33N 38°02' E 023°32'0 0.0
2014-Oct-20 01:33N 38°02' E 023°32'0 0.0
2014-Oct-20 00:30N 38°02' E 023°32'0 0.0
2014-Oct-19 23:33N 38°02' E 023°32'0 0.0
2014-Oct-19 22:30N 38°02' E 023°32'0 0.0
2014-Oct-19 21:33N 38°02' E 023°32'0 0.0
2014-Oct-19 20:33N 38°02' E 023°32'0 0.0
2014-Oct-19 19:33N 38°02' E 023°32'0 0.0
2014-Oct-19 18:33N 38°02' E 023°32'0 0.0
2014-Oct-19 17:33N 38°02' E 023°32'0 0.0
2014-Oct-19 16:33N 38°02' E 023°32'0 0.0
2014-Oct-19 15:33N 38°02' E 023°32'0 0.0
2014-Oct-19 14:33N 38°02' E 023°32'0 0.0
2014-Oct-19 13:33N 38°02' E 023°32'0 0.0
2014-Oct-19 12:33N 38°02' E 023°32'0 0.0
2014-Oct-19 11:33N 38°02' E 023°32'0 0.0
2014-Oct-19 10:33N 38°02' E 023°32'0 0.0
2014-Oct-19 09:33N 38°02' E 023°32'0 0.0
2014-Oct-19 08:33N 38°02' E 023°32'0 0.0
2014-Oct-19 07:33N 38°02' E 023°32'0 0.0
2014-Oct-19 06:33N 38°02' E 023°32'0 0.0
2014-Oct-19 05:33N 38°02' E 023°32'0 0.0
2014-Oct-19 04:33N 38°02' E 023°32'0 0.0
2014-Oct-19 03:33N 38°02' E 023°32'0 0.0
2014-Oct-19 02:33N 38°02' E 023°32'0 0.0
2014-Oct-19 01:33N 38°02' E 023°32'0 0.0
2014-Oct-19 00:33N 38°02' E 023°32'0 0.0
2014-Oct-18 23:33N 38°02' E 023°32'0 0.0
2014-Oct-18 22:33N 38°02' E 023°32'0 0.0
2014-Oct-18 21:33N 38°02' E 023°32'0 0.0
2014-Oct-18 20:33N 38°02' E 023°32'0 0.0
2014-Oct-18 19:33N 38°02' E 023°32'0 0.0
2014-Oct-18 18:33N 38°02' E 023°32'0 0.0
2014-Oct-18 17:33N 38°02' E 023°32'0 0.0
2014-Oct-18 16:33N 38°02' E 023°32'0 0.0
2014-Oct-18 15:33N 38°02' E 023°32'0 0.0
2014-Oct-18 14:33N 38°02' E 023°32'0 0.2
2014-Oct-18 13:34N 38°02' E 023°33'2 0.2
2014-Oct-18 06:33N 38°02' E 023°35'6 5.7
2014-Oct-18 05:33N 37°56' E 023°36'9 9.1
2014-Oct-18 04:33N 37°48' E 023°41'9 8.6
2014-Oct-18 03:32N 37°40' E 023°46'19 8.1
2014-Oct-18 01:13N 37°36' E 024°09'15 8.3
2014-Oct-17 23:25N 37°45' E 024°24'10 9.3
2014-Oct-17 22:21N 37°47' E 024°37'25 1.5
2014-Oct-17 05:26N 37°28' E 024°58'3 2.9
2014-Oct-17 04:27N 37°26' E 024°56'0 0.0
2014-Oct-17 03:27N 37°26' E 024°56'0 0.0
2014-Oct-17 02:27N 37°26' E 024°56'0 0.0
2014-Oct-17 01:33N 37°26' E 024°56'0 0.0
2014-Oct-17 00:33N 37°26' E 024°56'0 0.0
2014-Oct-16 23:33N 37°26' E 024°56'0 0.0
2014-Oct-16 22:33N 37°26' E 024°56'0 0.0
2014-Oct-16 21:21N 37°26' E 024°56'0 0.0
2014-Oct-16 20:33N 37°26' E 024°56'0 0.0
2014-Oct-16 19:27N 37°26' E 024°56'0 0.0
2014-Oct-16 18:33N 37°26' E 024°56'0 0.0
2014-Oct-16 17:30N 37°26' E 024°56'0 0.0
2014-Oct-16 16:27N 37°26' E 024°56'0 0.0
2014-Oct-16 15:24N 37°26' E 024°56'0 0.0
2014-Oct-16 14:33N 37°26' E 024°56'0 0.0
2014-Oct-16 13:33N 37°26' E 024°56'0 0.0
2014-Oct-16 12:33N 37°26' E 024°56'0 0.0
2014-Oct-16 11:06N 37°26' E 024°56'1 0.9
2014-Oct-16 10:27N 37°26' E 024°57'910.0
2014-Oct-16 09:33N 37°22' E 025°07'1110.9
2014-Oct-16 08:33N 37°18' E 025°20'1110.8
2014-Oct-16 07:33N 37°15' E 025°33'1010.4
2014-Oct-16 06:33N 37°11' E 025°45'1010.2
2014-Oct-16 05:33N 37°07' E 025°57'10 9.6
2014-Oct-16 04:33N 37°01' E 026°06'10 9.7
2014-Oct-16 03:33N 36°55' E 026°15'1010.1
2014-Oct-16 02:33N 36°48' E 026°24'1010.5
2014-Oct-16 01:33N 36°41' E 026°34'1110.9
2014-Oct-16 00:33N 36°33' E 026°44'1110.6
2014-Oct-15 23:33N 36°27' E 026°55'1110.3
2014-Oct-15 22:31N 36°23' E 027°07'56 1.5
2014-Oct-14 08:31N 37°00' E 026°14'1111.3
2014-Oct-14 07:33N 36°58' E 026°01'1010.3
2014-Oct-14 06:33N 36°52' E 025°50'2 0.2
2014-Oct-13 17:26N 36°50' E 025°51'6 7.1
2014-Oct-13 16:33N 36°49' E 025°43'1110.7
2014-Oct-13 15:33N 36°41' E 025°34'1110.7
2014-Oct-13 14:33N 36°33' E 025°26'9 8.5
2014-Oct-13 13:34N 36°24' E 025°25'1 1.2
2014-Oct-13 12:32N 36°23' E 025°26'0 0.0
2014-Oct-13 11:32N 36°23' E 025°26'0 0.0
2014-Oct-13 10:32N 36°23' E 025°26'0 0.0
2014-Oct-13 09:32N 36°23' E 025°26'0 0.0
2014-Oct-13 08:32N 36°23' E 025°26'0 0.0
2014-Oct-13 07:32N 36°23' E 025°26'0 0.0
2014-Oct-13 06:32N 36°23' E 025°26'0 0.0
2014-Oct-13 05:32N 36°23' E 025°26'0 0.0
2014-Oct-13 04:32N 36°23' E 025°26'0 0.0
2014-Oct-13 03:33N 36°23' E 025°26'0 0.0
2014-Oct-13 02:33N 36°23' E 025°26'0 0.0
2014-Oct-13 01:33N 36°23' E 025°26'0 0.0
2014-Oct-13 00:32N 36°23' E 025°26'0 0.0
2014-Oct-12 23:31N 36°23' E 025°26'0 0.0
2014-Oct-12 22:31N 36°23' E 025°26'0 0.0
2014-Oct-12 21:31N 36°23' E 025°26'0 0.0
2014-Oct-12 20:31N 36°23' E 025°26'0 0.0
2014-Oct-12 19:31N 36°23' E 025°26'0 0.0
2014-Oct-12 18:28N 36°23' E 025°26'0 0.0
2014-Oct-12 17:31N 36°23' E 025°26'0 0.0
2014-Oct-12 16:31N 36°23' E 025°26'0 0.0
2014-Oct-12 15:28N 36°23' E 025°26'0 0.0
2014-Oct-12 14:31N 36°23' E 025°26'0 0.0
2014-Oct-12 13:28N 36°23' E 025°26'0 0.0
2014-Oct-12 12:31N 36°23' E 025°26'0 0.0
2014-Oct-12 11:31N 36°23' E 025°26'0 0.0
2014-Oct-12 10:33N 36°23' E 025°26'3 3.4
2014-Oct-12 09:33N 36°26' E 025°23'1110.6
2014-Oct-12 08:33N 36°35' E 025°17'1110.8
2014-Oct-12 07:33N 36°45' E 025°11'1110.8
2014-Oct-12 06:33N 36°52' E 025°01'9 8.6
2014-Oct-12 05:33N 37°01' E 024°59'9 0.4
2014-Oct-11 09:23N 37°06' E 025°07'1010.5
2014-Oct-11 08:29N 37°15' E 025°04'910.2
2014-Oct-11 07:33N 37°24' E 025°01'4 4.0
2014-Oct-11 06:33N 37°26' E 024°56'0 0.0
2014-Oct-11 05:34N 37°26' E 024°56'0 0.0
2014-Oct-11 04:22N 37°26' E 024°56'0 0.0
2014-Oct-11 03:30N 37°26' E 024°56'0 0.0
2014-Oct-11 02:22N 37°26' E 024°56'0 0.0
2014-Oct-11 01:16N 37°26' E 024°56'0 0.0
2014-Oct-11 00:31N 37°26' E 024°56'0 0.0
2014-Oct-10 23:34N 37°26' E 024°56'0 0.0
2014-Oct-10 22:22N 37°26' E 024°56'0 0.0
2014-Oct-10 21:28N 37°26' E 024°56'0 0.0
2014-Oct-10 20:22N 37°26' E 024°56'0 0.0
2014-Oct-10 19:33N 37°26' E 024°56'0 0.0
2014-Oct-10 18:31N 37°26' E 024°56'0 0.0
2014-Oct-10 17:34N 37°26' E 024°56'0 0.0
2014-Oct-10 16:24N 37°26' E 024°56'0 0.0
2014-Oct-10 15:22N 37°26' E 024°56'0 0.0
2014-Oct-10 14:22N 37°26' E 024°56'0 0.0
2014-Oct-10 13:22N 37°26' E 024°56'0 0.0
2014-Oct-10 12:22N 37°26' E 024°56'0 0.0
2014-Oct-10 11:34N 37°26' E 024°56'0 0.0
2014-Oct-10 10:28N 37°26' E 024°56'0 0.0
2014-Oct-10 09:31N 37°26' E 024°56'0 0.0
2014-Oct-10 08:28N 37°26' E 024°56'0 0.0
2014-Oct-10 07:28N 37°26' E 024°56'0 0.0
2014-Oct-10 06:31N 37°26' E 024°56'0 0.0
2014-Oct-10 05:31N 37°26' E 024°56'0 0.0
2014-Oct-10 04:34N 37°26' E 024°56'0 0.0
2014-Oct-10 03:31N 37°26' E 024°56'  
Track history (hours):
 
Tides and Currents Weather Stations Pressure Air Temp Water Temp Dewpoint Dewpoint Depression Visibility Wind Speed Wind Dir Waves Ship Positions

Eko 2

Last reported at 2014-Oct-20 03:27 UTC. Time now 2014-Oct-20 04:28 UTC.
Position N 38°02' E 023°32'.

Length 89 m; draft 4.3 m.

Type: Ship (hazmat cat A). MMSI: 240827000.

Date/timePositionNaut miles runAvg speedWind from/ knotsBaromVisibWave heightAir tempDewpointWater temp
2014-Oct-20 03:27N 38°02' E 023°32'0 0.0
2014-Oct-20 02:33N 38°02' E 023°32'0 0.0
2014-Oct-20 01:33N 38°02' E 023°32'0 0.0
2014-Oct-20 00:30N 38°02' E 023°32'0 0.0
2014-Oct-19 23:33N 38°02' E 023°32'0 0.0
2014-Oct-19 22:30N 38°02' E 023°32'0 0.0
2014-Oct-19 21:33N 38°02' E 023°32'0 0.0
2014-Oct-19 20:33N 38°02' E 023°32'0 0.0
2014-Oct-19 19:33N 38°02' E 023°32'0 0.0
2014-Oct-19 18:33N 38°02' E 023°32'0 0.0
2014-Oct-19 17:33N 38°02' E 023°32'0 0.0
2014-Oct-19 16:33N 38°02' E 023°32'0 0.0
2014-Oct-19 15:33N 38°02' E 023°32'0 0.0
2014-Oct-19 14:33N 38°02' E 023°32'0 0.0
2014-Oct-19 13:33N 38°02' E 023°32'0 0.0
2014-Oct-19 12:33N 38°02' E 023°32'0 0.0
2014-Oct-19 11:33N 38°02' E 023°32'0 0.0
2014-Oct-19 10:33N 38°02' E 023°32'0 0.0
2014-Oct-19 09:33N 38°02' E 023°32'0 0.0
2014-Oct-19 08:33N 38°02' E 023°32'0 0.0
2014-Oct-19 07:33N 38°02' E 023°32'0 0.0
2014-Oct-19 06:33N 38°02' E 023°32'0 0.0
2014-Oct-19 05:33N 38°02' E 023°32'0 0.0
2014-Oct-19 04:33N 38°02' E 023°32'0 0.0
2014-Oct-19 03:33N 38°02' E 023°32'0 0.0
2014-Oct-19 02:33N 38°02' E 023°32'0 0.0
2014-Oct-19 01:33N 38°02' E 023°32'0 0.0
2014-Oct-19 00:33N 38°02' E 023°32'0 0.0
2014-Oct-18 23:33N 38°02' E 023°32'0 0.0
2014-Oct-18 22:33N 38°02' E 023°32'0 0.0
2014-Oct-18 21:33N 38°02' E 023°32'0 0.0
2014-Oct-18 20:33N 38°02' E 023°32'0 0.0
2014-Oct-18 19:33N 38°02' E 023°32'0 0.0
2014-Oct-18 18:33N 38°02' E 023°32'0 0.0
2014-Oct-18 17:33N 38°02' E 023°32'0 0.0
2014-Oct-18 16:33N 38°02' E 023°32'0 0.0
2014-Oct-18 15:33N 38°02' E 023°32'0 0.0
2014-Oct-18 14:33N 38°02' E 023°32'0 0.2
2014-Oct-18 13:34N 38°02' E 023°33'2 0.2
2014-Oct-18 06:33N 38°02' E 023°35'6 5.7
2014-Oct-18 05:33N 37°56' E 023°36'9 9.1
2014-Oct-18 04:33N 37°48' E 023°41'9 8.6
2014-Oct-18 03:32N 37°40' E 023°46'19 8.1
2014-Oct-18 01:13N 37°36' E 024°09'15 8.3
2014-Oct-17 23:25N 37°45' E 024°24'10 9.3
2014-Oct-17 22:21N 37°47' E 024°37'25 1.5
2014-Oct-17 05:26N 37°28' E 024°58'3 2.9
2014-Oct-17 04:27N 37°26' E 024°56'0 0.0
2014-Oct-17 03:27N 37°26' E 024°56'0 0.0
2014-Oct-17 02:27N 37°26' E 024°56'0 0.0
2014-Oct-17 01:33N 37°26' E 024°56'0 0.0
2014-Oct-17 00:33N 37°26' E 024°56'0 0.0
2014-Oct-16 23:33N 37°26' E 024°56'0 0.0
2014-Oct-16 22:33N 37°26' E 024°56'0 0.0
2014-Oct-16 21:21N 37°26' E 024°56'0 0.0
2014-Oct-16 20:33N 37°26' E 024°56'0 0.0
2014-Oct-16 19:27N 37°26' E 024°56'0 0.0
2014-Oct-16 18:33N 37°26' E 024°56'0 0.0
2014-Oct-16 17:30N 37°26' E 024°56'0 0.0
2014-Oct-16 16:27N 37°26' E 024°56'0 0.0
2014-Oct-16 15:24N 37°26' E 024°56'0 0.0
2014-Oct-16 14:33N 37°26' E 024°56'0 0.0
2014-Oct-16 13:33N 37°26' E 024°56'0 0.0
2014-Oct-16 12:33N 37°26' E 024°56'0 0.0
2014-Oct-16 11:06N 37°26' E 024°56'1 0.9
2014-Oct-16 10:27N 37°26' E 024°57'910.0
2014-Oct-16 09:33N 37°22' E 025°07'1110.9
2014-Oct-16 08:33N 37°18' E 025°20'1110.8
2014-Oct-16 07:33N 37°15' E 025°33'1010.4
2014-Oct-16 06:33N 37°11' E 025°45'1010.2
2014-Oct-16 05:33N 37°07' E 025°57'10 9.6
2014-Oct-16 04:33N 37°01' E 026°06'10 9.7
2014-Oct-16 03:33N 36°55' E 026°15'1010.1
2014-Oct-16 02:33N 36°48' E 026°24'1010.5
2014-Oct-16 01:33N 36°41' E 026°34'1110.9
2014-Oct-16 00:33N 36°33' E 026°44'1110.6
2014-Oct-15 23:33N 36°27' E 026°55'1110.3
2014-Oct-15 22:31N 36°23' E 027°07'56 1.5
2014-Oct-14 08:31N 37°00' E 026°14'1111.3
2014-Oct-14 07:33N 36°58' E 026°01'1010.3
2014-Oct-14 06:33N 36°52' E 025°50'2 0.2
2014-Oct-13 17:26N 36°50' E 025°51'6 7.1
2014-Oct-13 16:33N 36°49' E 025°43'1110.7
2014-Oct-13 15:33N 36°41' E 025°34'1110.7
2014-Oct-13 14:33N 36°33' E 025°26'9 8.5
2014-Oct-13 13:34N 36°24' E 025°25'1 1.2
2014-Oct-13 12:32N 36°23' E 025°26'0 0.0
2014-Oct-13 11:32N 36°23' E 025°26'0 0.0
2014-Oct-13 10:32N 36°23' E 025°26'0 0.0
2014-Oct-13 09:32N 36°23' E 025°26'0 0.0
2014-Oct-13 08:32N 36°23' E 025°26'0 0.0
2014-Oct-13 07:32N 36°23' E 025°26'0 0.0
2014-Oct-13 06:32N 36°23' E 025°26'0 0.0
2014-Oct-13 05:32N 36°23' E 025°26'0 0.0
2014-Oct-13 04:32N 36°23' E 025°26'0 0.0
2014-Oct-13 03:33N 36°23' E 025°26'0 0.0
2014-Oct-13 02:33N 36°23' E 025°26'0 0.0
2014-Oct-13 01:33N 36°23' E 025°26'0 0.0
2014-Oct-13 00:32N 36°23' E 025°26'0 0.0
2014-Oct-12 23:31N 36°23' E 025°26'0 0.0
2014-Oct-12 22:31N 36°23' E 025°26'0 0.0
2014-Oct-12 21:31N 36°23' E 025°26'0 0.0
2014-Oct-12 20:31N 36°23' E 025°26'0 0.0
2014-Oct-12 19:31N 36°23' E 025°26'0 0.0
2014-Oct-12 18:28N 36°23' E 025°26'0 0.0
2014-Oct-12 17:31N 36°23' E 025°26'0 0.0
2014-Oct-12 16:31N 36°23' E 025°26'0 0.0
2014-Oct-12 15:28N 36°23' E 025°26'0 0.0
2014-Oct-12 14:31N 36°23' E 025°26'0 0.0
2014-Oct-12 13:28N 36°23' E 025°26'0 0.0
2014-Oct-12 12:31N 36°23' E 025°26'0 0.0
2014-Oct-12 11:31N 36°23' E 025°26'0 0.0
2014-Oct-12 10:33N 36°23' E 025°26'3 3.4
2014-Oct-12 09:33N 36°26' E 025°23'1110.6
2014-Oct-12 08:33N 36°35' E 025°17'1110.8
2014-Oct-12 07:33N 36°45' E 025°11'1110.8
2014-Oct-12 06:33N 36°52' E 025°01'9 8.6
2014-Oct-12 05:33N 37°01' E 024°59'9 0.4
2014-Oct-11 09:23N 37°06' E 025°07'1010.5
2014-Oct-11 08:29N 37°15' E 025°04'910.2
2014-Oct-11 07:33N 37°24' E 025°01'4 4.0
2014-Oct-11 06:33N 37°26' E 024°56'0 0.0
2014-Oct-11 05:34N 37°26' E 024°56'0 0.0
2014-Oct-11 04:22N 37°26' E 024°56'0 0.0
2014-Oct-11 03:30N 37°26' E 024°56'0 0.0
2014-Oct-11 02:22N 37°26' E 024°56'0 0.0
2014-Oct-11 01:16N 37°26' E 024°56'0 0.0
2014-Oct-11 00:31N 37°26' E 024°56'0 0.0
2014-Oct-10 23:34N 37°26' E 024°56'0 0.0
2014-Oct-10 22:22N 37°26' E 024°56'0 0.0
2014-Oct-10 21:28N 37°26' E 024°56'0 0.0
2014-Oct-10 20:22N 37°26' E 024°56'0 0.0
2014-Oct-10 19:33N 37°26' E 024°56'0 0.0
2014-Oct-10 18:31N 37°26' E 024°56'0 0.0
2014-Oct-10 17:34N 37°26' E 024°56'0 0.0
2014-Oct-10 16:24N 37°26' E 024°56'0 0.0
2014-Oct-10 15:22N 37°26' E 024°56'0 0.0
2014-Oct-10 14:22N 37°26' E 024°56'0 0.0
2014-Oct-10 13:22N 37°26' E 024°56'0 0.0
2014-Oct-10 12:22N 37°26' E 024°56'0 0.0
2014-Oct-10 11:34N 37°26' E 024°56'0 0.0
2014-Oct-10 10:28N 37°26' E 024°56'0 0.0
2014-Oct-10 09:31N 37°26' E 024°56'0 0.0
2014-Oct-10 08:28N 37°26' E 024°56'0 0.0
2014-Oct-10 07:28N 37°26' E 024°56'0 0.0
2014-Oct-10 06:31N 37°26' E 024°56'0 0.0
2014-Oct-10 05:31N 37°26' E 024°56'0 0.0
2014-Oct-10 04:34N 37°26' E 024°56'0 0.0
2014-Oct-10 03:31N 37°26' E 024°56'  

Dump ship's entire track history